TimeCST,TemperatureF,Dew PointF,Humidity,Sea Level PressureIn,VisibilityMPH,Wind Direction,Wind SpeedMPH,Gust SpeedMPH,PrecipitationIn,Events,Conditions,WindDirDegrees,DateUTC
12:15 AM,15.8,10.4,79,29.76,10.0,NNW,16.1,23.0,N/A,,Overcast,340,2012-12-11 06:15:00
12:35 AM,15.8,10.4,79,29.76,10.0,NNW,16.1,19.6,N/A,Snow,Light Snow,330,2012-12-11 06:35:00
12:55 AM,14.0,10.4,86,29.77,10.0,NNW,16.1,23.0,N/A,Snow,Light Snow,330,2012-12-11 06:55:00
1:15 AM,14.0,10.4,86,29.77,10.0,NW,11.5,-,N/A,,Overcast,310,2012-12-11 07:15:00
1:35 AM,14.0,10.4,86,29.77,10.0,NNW,13.8,18.4,N/A,,Overcast,330,2012-12-11 07:35:00
1:55 AM,14.0,10.4,86,29.77,10.0,NW,12.7,-,N/A,,Overcast,320,2012-12-11 07:55:00
2:15 AM,12.2,8.6,85,29.77,10.0,North,9.2,-,N/A,Snow,Light Snow,350,2012-12-11 08:15:00
2:35 AM,10.4,6.8,85,29.78,10.0,North,11.5,-,N/A,Snow,Light Snow,350,2012-12-11 08:35:00
2:55 AM,8.6,5.0,85,29.77,10.0,North,11.5,-,N/A,,Overcast,350,2012-12-11 08:55:00
3:15 AM,8.6,3.2,79,29.78,10.0,NNW,11.5,-,N/A,,Overcast,340,2012-12-11 09:15:00
3:35 AM,8.6,3.2,79,29.79,10.0,NNW,13.8,-,N/A,,Overcast,330,2012-12-11 09:35:00
3:55 AM,8.6,3.2,79,29.79,10.0,NW,15.0,-,N/A,Snow,Light Snow,320,2012-12-11 09:55:00
4:15 AM,6.8,5.0,92,29.79,10.0,NW,16.1,20.7,N/A,Snow,Light Snow,320,2012-12-11 10:15:00
4:35 AM,6.8,5.0,92,29.79,10.0,NNW,11.5,-,N/A,Snow,Light Snow,330,2012-12-11 10:35:00
4:55 AM,6.8,5.0,92,29.79,10.0,NW,13.8,-,N/A,Snow,Light Snow,310,2012-12-11 10:55:00
5:15 AM,6.8,3.2,85,29.79,10.0,NNW,12.7,-,N/A,Snow,Light Snow,330,2012-12-11 11:15:00
5:35 AM,5.0,3.2,92,29.79,10.0,NNW,12.7,-,N/A,,Overcast,340,2012-12-11 11:35:00
5:55 AM,5.0,1.4,85,29.79,10.0,NNW,6.9,-,N/A,,Overcast,340,2012-12-11 11:55:00
6:15 AM,3.2,-0.4,85,29.79,10.0,North,9.2,-,N/A,,Overcast,350,2012-12-11 12:15:00
6:35 AM,3.2,-0.4,85,29.80,10.0,NW,8.1,-,N/A,,Overcast,320,2012-12-11 12:35:00
6:55 AM,3.2,-0.4,85,29.79,10.0,NW,8.1,-,N/A,,Overcast,320,2012-12-11 12:55:00
7:15 AM,1.4,-0.4,92,29.78,9.0,North,5.8,-,N/A,Snow,Light Snow,350,2012-12-11 13:15:00
7:35 AM,-0.4,-2.2,92,29.78,10.0,North,3.5,-,N/A,,Overcast,350,2012-12-11 13:35:00
7:55 AM,-0.4,-4.0,85,29.77,10.0,North,4.6,-,N/A,,Overcast,10,2012-12-11 13:55:00
8:15 AM,-2.2,-5.8,85,29.76,10.0,North,4.6,-,N/A,,Overcast,10,2012-12-11 14:15:00
8:35 AM,-0.4,-4.0,85,29.76,10.0,Calm,Calm,-,N/A,,Overcast,0,2012-12-11 14:35:00
8:55 AM,-0.4,-4.0,85,29.76,10.0,Calm,Calm,-,N/A,,Overcast,0,2012-12-11 14:55:00
9:15 AM,-0.4,-2.2,92,29.77,8.0,Calm,Calm,-,N/A,,Overcast,0,2012-12-11 15:15:00
9:35 AM,-0.4,-4.0,85,29.76,7.0,East,3.5,-,N/A,Snow,Light Snow,90,2012-12-11 15:35:00
9:55 AM,-0.4,-2.2,92,29.76,7.0,ENE,3.5,-,N/A,,Mostly Cloudy,60,2012-12-11 15:55:00
10:15 AM,1.4,-2.2,85,29.76,4.0,ESE,4.6,-,N/A,,Overcast,110,2012-12-11 16:15:00
10:35 AM,1.4,-0.4,92,29.75,6.0,SE,8.1,-,N/A,Snow,Light Snow,130,2012-12-11 16:35:00
10:55 AM,1.4,-0.4,92,29.74,9.0,ESE,8.1,-,N/A,,Overcast,120,2012-12-11 16:55:00
11:15 AM,1.4,-0.4,92,29.74,10.0,ESE,5.8,-,N/A,,Overcast,110,2012-12-11 17:15:00
11:35 AM,5.0,-0.4,78,29.72,10.0,East,8.1,-,N/A,Snow,Light Snow,100,2012-12-11 17:35:00
11:55 AM,5.0,1.4,85,29.71,10.0,East,8.1,-,N/A,,Scattered Clouds,100,2012-12-11 17:55:00
12:15 PM,6.8,5.0,92,29.69,10.0,ESE,8.1,-,N/A,,Mostly Cloudy,110,2012-12-11 18:15:00
12:35 PM,8.6,5.0,85,29.68,10.0,ESE,6.9,-,N/A,,Mostly Cloudy,110,2012-12-11 18:35:00
12:55 PM,10.4,5.0,79,29.66,10.0,ESE,9.2,-,N/A,,Scattered Clouds,110,2012-12-11 18:55:00
1:15 PM,14.0,8.6,79,29.65,10.0,SE,9.2,-,N/A,,Partly Cloudy,140,2012-12-11 19:15:00
1:35 PM,14.0,8.6,79,29.64,10.0,SE,10.4,-,N/A,,Scattered Clouds,130,2012-12-11 19:35:00
1:55 PM,14.0,8.6,79,29.64,10.0,SSE,8.1,-,N/A,,Mostly Cloudy,150,2012-12-11 19:55:00
2:15 PM,15.8,8.6,73,29.64,10.0,ESE,5.8,-,N/A,,Overcast,120,2012-12-11 20:15:00
2:35 PM,15.8,10.4,79,29.63,10.0,ESE,9.2,-,N/A,,Overcast,120,2012-12-11 20:35:00
2:55 PM,15.8,10.4,79,29.61,10.0,ESE,11.5,-,N/A,,Overcast,120,2012-12-11 20:55:00
3:15 PM,15.8,10.4,79,29.59,10.0,ESE,13.8,-,N/A,,Overcast,120,2012-12-11 21:15:00
3:35 PM,14.0,8.6,79,29.58,10.0,East,11.5,-,N/A,,Scattered Clouds,90,2012-12-11 21:35:00
3:55 PM,14.0,8.6,79,29.56,10.0,ESE,12.7,17.3,N/A,,Clear,120,2012-12-11 21:55:00
4:15 PM,14.0,10.4,86,29.56,10.0,East,12.7,-,N/A,,Partly Cloudy,100,2012-12-11 22:15:00
4:35 PM,12.2,8.6,85,29.55,10.0,East,9.2,-,N/A,,Scattered Clouds,100,2012-12-11 22:35:00
4:55 PM,12.2,8.6,85,29.55,10.0,East,10.4,-,N/A,,Mostly Cloudy,90,2012-12-11 22:55:00
5:15 PM,12.2,8.6,85,29.55,10.0,East,9.2,-,N/A,,Mostly Cloudy,100,2012-12-11 23:15:00
5:35 PM,15.8,14.0,93,29.54,10.0,ESE,11.5,-,N/A,,Mostly Cloudy,120,2012-12-11 23:35:00
5:55 PM,15.8,12.2,86,29.53,10.0,ESE,9.2,-,N/A,,Overcast,120,2012-12-11 23:55:00
6:15 PM,17.6,15.8,93,29.52,5.0,ESE,13.8,-,N/A,Snow,Light Snow,120,2012-12-12 00:15:00
6:35 PM,14.0,10.4,86,29.51,4.0,East,10.4,-,N/A,Snow,Light Snow,90,2012-12-12 00:35:00
7:15 PM,10.4,8.6,92,29.49,1.5,East,11.5,-,0.04,Snow,Light Snow,100,2012-12-12 01:15:00
7:35 PM,14.0,10.4,86,29.49,1.8,East,5.8,-,0.16,Snow,Light Snow,100,2012-12-12 01:35:00
7:55 PM,19.4,17.6,93,29.48,1.0,ESE,11.5,-,0.25,Snow,Light Snow,120,2012-12-12 01:55:00
8:15 PM,19.4,19.4,100,29.47,1.2,SE,10.4,-,0.06,Snow,Light Snow,130,2012-12-12 02:15:00
8:35 PM,21.2,19.4,93,29.47,2.0,ESE,9.2,-,0.09,Snow,Light Snow,110,2012-12-12 02:35:00
8:55 PM,14.0,10.4,86,29.47,3.0,East,8.1,-,0.11,Snow,Light Snow,80,2012-12-12 02:55:00
9:15 PM,12.2,10.4,92,29.48,5.0,East,10.4,-,0.02,Snow,Light Snow,80,2012-12-12 03:15:00
9:35 PM,10.4,8.6,92,29.47,5.0,East,10.4,-,0.04,Snow,Light Snow,100,2012-12-12 03:35:00
9:55 PM,12.2,8.6,85,29.47,8.0,ENE,12.7,-,0.04,Snow,Light Snow,70,2012-12-12 03:55:00
10:15 PM,10.4,8.6,92,29.47,5.0,East,13.8,-,N/A,Snow,Light Snow,80,2012-12-12 04:15:00
10:35 PM,10.4,6.8,85,29.46,7.0,East,13.8,-,N/A,Snow,Light Snow,90,2012-12-12 04:35:00
10:55 PM,8.6,6.8,92,29.47,10.0,East,11.5,-,N/A,,Clear,80,2012-12-12 04:55:00
11:15 PM,8.6,6.8,92,29.47,10.0,East,13.8,-,N/A,,Clear,80,2012-12-12 05:15:00
11:35 PM,8.6,5.0,85,29.48,10.0,East,11.5,-,N/A,,Clear,80,2012-12-12 05:35:00
11:55 PM,8.6,6.8,92,29.49,10.0,East,11.5,-,N/A,,Partly Cloudy,80,2012-12-12 05:55:00